Time,TemperatureF,DewpointF,PressureIn,WindDirection,WindDirectionDegrees,WindSpeedMPH,WindSpeedGustMPH,Humidity,HourlyPrecipIn,Conditions,Clouds,dailyrainin,SoftwareType,DateUTC
2013-07-01 11:03:00,77.2,71.3,29.85,SW,229,3.0,8.0,82,0.00,,,0.04,Wunderground v.1.15,2013-07-01 15:03:00,
2013-07-01 11:08:00,77.6,71.3,29.85,SSW,193,3.0,6.0,81,0.00,,,0.04,Wunderground v.1.15,2013-07-01 15:08:00,
2013-07-01 11:13:00,77.9,72.0,29.85,SSW,210,3.0,6.0,82,0.00,,,0.04,Wunderground v.1.15,2013-07-01 15:13:00,
2013-07-01 11:18:00,78.0,71.7,29.85,North,5,3.0,7.0,81,0.00,,,0.04,Wunderground v.1.15,2013-07-01 15:18:00,
2013-07-01 11:23:00,78.1,71.4,29.85,SSW,197,0.0,7.0,80,0.00,,,0.04,Wunderground v.1.15,2013-07-01 15:23:00,
2013-07-01 11:28:00,78.1,71.8,29.85,SSW,192,0.0,4.0,81,0.00,,,0.04,Wunderground v.1.15,2013-07-01 15:28:00,
2013-07-01 11:33:00,78.2,72.3,29.85,SSW,192,0.0,4.0,82,0.00,,,0.04,Wunderground v.1.15,2013-07-01 15:33:00,
2013-07-01 11:38:00,78.2,72.3,29.85,West,268,2.0,5.0,82,0.00,,,0.04,Wunderground v.1.15,2013-07-01 15:38:00,
2013-07-01 11:43:00,78.0,71.7,29.85,West,268,0.0,5.0,81,0.00,,,0.04,Wunderground v.1.15,2013-07-01 15:43:00,
2013-07-01 11:48:00,77.8,71.1,29.85,WSW,247,2.0,5.0,80,0.00,,,0.04,Wunderground v.1.15,2013-07-01 15:48:00,
2013-07-01 11:54:00,77.7,71.4,29.85,WSW,246,0.0,5.0,81,0.00,,,0.04,Wunderground v.1.15,2013-07-01 15:54:00,
2013-07-01 11:59:00,77.9,71.6,29.85,NNW,332,0.0,1.0,81,0.00,,,0.04,Wunderground v.1.15,2013-07-01 15:59:00,
2013-07-01 12:04:00,78.0,71.3,29.85,WNW,302,0.0,4.0,80,0.00,,,0.04,Wunderground v.1.15,2013-07-01 16:04:00,
2013-07-01 12:09:00,78.4,72.1,29.85,SSW,193,0.0,3.0,81,0.00,,,0.04,Wunderground v.1.15,2013-07-01 16:09:00,
2013-07-01 12:14:00,78.7,71.6,29.84,NW,304,2.0,5.0,79,0.00,,,0.04,Wunderground v.1.15,2013-07-01 16:14:00,
2013-07-01 12:19:00,78.9,71.8,29.84,South,181,0.0,4.0,79,0.00,,,0.04,Wunderground v.1.15,2013-07-01 16:19:00,
2013-07-01 12:24:00,79.3,72.2,29.84,South,177,4.0,4.0,79,0.00,,,0.04,Wunderground v.1.15,2013-07-01 16:24:00,
2013-07-01 12:29:00,79.5,71.3,29.84,SSW,203,0.0,6.0,76,0.00,,,0.04,Wunderground v.1.15,2013-07-01 16:29:00,
2013-07-01 12:34:00,79.6,71.4,29.85,SW,225,5.0,5.0,76,0.00,,,0.04,Wunderground v.1.15,2013-07-01 16:34:00,
2013-07-01 12:39:00,79.7,72.2,29.85,South,191,0.0,5.0,78,0.00,,,0.04,Wunderground v.1.15,2013-07-01 16:39:00,
2013-07-01 12:44:00,79.9,72.0,29.85,WSW,252,2.0,2.0,77,0.00,,,0.04,Wunderground v.1.15,2013-07-01 16:44:00,
2013-07-01 12:49:00,79.9,71.7,29.85,North,355,0.0,3.0,76,0.00,,,0.04,Wunderground v.1.15,2013-07-01 16:49:00,
2013-07-01 12:54:00,79.8,71.6,29.84,SW,227,2.0,3.0,76,0.00,,,0.04,Wunderground v.1.15,2013-07-01 16:54:00,
2013-07-01 12:59:00,79.8,71.9,29.84,South,169,2.0,4.0,77,0.00,,,0.04,Wunderground v.1.15,2013-07-01 16:59:00,
2013-07-01 13:04:00,79.9,72.0,29.84,West,263,3.0,3.0,77,0.00,,,0.04,Wunderground v.1.15,2013-07-01 17:04:00,
2013-07-01 13:09:00,79.9,71.7,29.84,SSW,202,4.0,5.0,76,0.00,,,0.04,Wunderground v.1.15,2013-07-01 17:09:00,
2013-07-01 13:14:00,80.0,71.8,29.84,SSW,202,0.0,2.0,76,0.00,,,0.04,Wunderground v.1.15,2013-07-01 17:14:00,
2013-07-01 13:19:00,80.1,71.5,29.83,SSW,201,0.0,5.0,75,0.00,,,0.04,Wunderground v.1.15,2013-07-01 17:19:00,
2013-07-01 13:24:00,80.6,71.5,29.83,SSW,194,3.0,4.0,74,0.00,,,0.04,Wunderground v.1.15,2013-07-01 17:24:00,
2013-07-01 13:29:00,80.9,71.8,29.83,SSW,194,0.0,5.0,74,0.00,,,0.04,Wunderground v.1.15,2013-07-01 17:29:00,
2013-07-01 13:34:00,81.1,71.6,29.83,SSE,167,5.0,5.0,73,0.00,,,0.04,Wunderground v.1.15,2013-07-01 17:34:00,
2013-07-01 13:39:00,81.2,71.7,29.83,SW,232,0.0,5.0,73,0.00,,,0.04,Wunderground v.1.15,2013-07-01 17:39:00,
2013-07-01 13:44:00,81.3,72.2,29.83,South,182,4.0,4.0,74,0.00,,,0.04,Wunderground v.1.15,2013-07-01 17:44:00,
2013-07-01 13:49:00,81.7,73.4,29.83,South,182,0.0,4.0,76,0.00,,,0.04,Wunderground v.1.15,2013-07-01 17:49:00,
2013-07-01 13:54:00,82.0,73.3,29.83,SSE,162,1.0,4.0,75,0.00,,,0.04,Wunderground v.1.15,2013-07-01 17:54:00,
2013-07-01 13:59:00,81.9,73.2,29.83,South,178,7.0,7.0,75,0.00,,,0.04,Wunderground v.1.15,2013-07-01 17:59:00,
2013-07-01 14:04:00,81.6,72.9,29.83,South,185,2.0,5.0,75,0.00,,,0.04,Wunderground v.1.15,2013-07-01 18:04:00,
2013-07-01 14:09:00,81.3,73.0,29.83,South,178,0.0,5.0,76,0.00,,,0.04,Wunderground v.1.15,2013-07-01 18:09:00,
2013-07-01 14:10:00,81.2,72.9,29.83,South,178,0.0,5.0,76,0.00,,,0.04,Wunderground v.1.15,2013-07-01 18:10:00,
2013-07-01 14:15:00,81.1,73.2,29.83,South,169,4.0,8.0,77,0.00,,,0.04,Wunderground v.1.15,2013-07-01 18:15:00,
2013-07-01 14:20:00,80.9,72.2,29.83,South,183,4.0,8.0,75,0.00,,,0.04,Wunderground v.1.15,2013-07-01 18:20:00,
2013-07-01 14:25:00,80.9,72.6,29.83,South,180,2.0,4.0,76,0.00,,,0.04,Wunderground v.1.15,2013-07-01 18:25:00,
2013-07-01 14:30:00,80.9,72.6,29.82,South,189,4.0,7.0,76,0.00,,,0.04,Wunderground v.1.15,2013-07-01 18:30:00,
2013-07-01 14:35:00,81.0,72.7,29.82,South,183,3.0,6.0,76,0.00,,,0.04,Wunderground v.1.15,2013-07-01 18:35:00,
2013-07-01 14:40:00,81.1,72.4,29.82,South,180,6.0,10.0,75,0.00,,,0.04,Wunderground v.1.15,2013-07-01 18:40:00,
2013-07-01 14:45:00,81.2,72.5,29.82,South,178,8.0,8.0,75,0.00,,,0.04,Wunderground v.1.15,2013-07-01 18:45:00,
2013-07-01 14:50:00,81.7,72.6,29.82,SSE,167,5.0,10.0,74,0.00,,,0.04,Wunderground v.1.15,2013-07-01 18:50:00,
2013-07-01 14:55:00,82.0,72.1,29.82,SSW,198,7.0,10.0,72,0.00,,,0.04,Wunderground v.1.15,2013-07-01 18:55:00,
2013-07-01 15:00:00,82.2,71.4,29.82,WSW,244,10.0,10.0,70,0.00,,,0.04,Wunderground v.1.15,2013-07-01 19:00:00,
2013-07-01 15:05:00,82.4,72.5,29.82,South,176,7.0,7.0,72,0.00,,,0.04,Wunderground v.1.15,2013-07-01 19:05:00,
2013-07-01 15:10:00,83.0,72.6,29.82,SW,236,6.0,13.0,71,0.00,,,0.04,Wunderground v.1.15,2013-07-01 19:10:00,
2013-07-01 15:15:00,83.0,72.2,29.82,SSW,198,6.0,9.0,70,0.00,,,0.04,Wunderground v.1.15,2013-07-01 19:15:00,
2013-07-01 15:20:00,83.0,72.2,29.82,South,186,7.0,9.0,70,0.00,,,0.04,Wunderground v.1.15,2013-07-01 19:20:00,
2013-07-01 15:25:00,82.9,72.9,29.82,South,180,3.0,7.0,72,0.00,,,0.04,Wunderground v.1.15,2013-07-01 19:25:00,
2013-07-01 15:30:00,82.6,72.7,29.82,SSW,196,2.0,9.0,72,0.00,,,0.04,Wunderground v.1.15,2013-07-01 19:30:00,
2013-07-01 15:35:00,82.7,72.3,29.82,SSW,196,3.0,8.0,71,0.00,,,0.04,Wunderground v.1.15,2013-07-01 19:35:00,
2013-07-01 15:41:00,83.1,72.7,29.82,South,172,7.0,11.0,71,0.00,,,0.04,Wunderground v.1.15,2013-07-01 19:41:00,
2013-07-01 15:46:00,83.0,72.2,29.82,SSW,195,3.0,5.0,70,0.00,,,0.04,Wunderground v.1.15,2013-07-01 19:46:00,
2013-07-01 15:51:00,83.0,72.2,29.82,SSW,203,6.0,9.0,70,0.00,,,0.04,Wunderground v.1.15,2013-07-01 19:51:00,
2013-07-01 15:56:00,83.1,72.7,29.82,SSW,208,3.0,9.0,71,0.00,,,0.04,Wunderground v.1.15,2013-07-01 19:56:00,
2013-07-01 16:01:00,83.2,72.8,29.82,South,182,5.0,9.0,71,0.00,,,0.04,Wunderground v.1.15,2013-07-01 20:01:00,
2013-07-01 16:06:00,83.3,72.9,29.82,South,177,4.0,6.0,71,0.00,,,0.04,Wunderground v.1.15,2013-07-01 20:06:00,
2013-07-01 16:11:00,83.2,72.8,29.82,South,182,1.0,7.0,71,0.00,,,0.04,Wunderground v.1.15,2013-07-01 20:11:00,
2013-07-01 16:16:00,83.2,72.8,29.82,South,180,5.0,8.0,71,0.00,,,0.04,Wunderground v.1.15,2013-07-01 20:16:00,
2013-07-01 16:21:00,83.2,73.2,29.82,South,188,2.0,8.0,72,0.00,,,0.04,Wunderground v.1.15,2013-07-01 20:21:00,
2013-07-01 16:26:00,83.0,73.4,29.82,SSW,195,5.0,8.0,73,0.00,,,0.04,Wunderground v.1.15,2013-07-01 20:26:00,
2013-07-01 16:28:00,86.8,76.3,29.85,WSW,258,0.0,6.0,71,0.00,,,0.02,Wunderground v.1.15,2013-07-01 20:28:00,
2013-07-01 16:30:00,86.9,75.9,29.85,WSW,248,0.0,3.0,70,0.00,,,0.02,Wunderground v.1.15,2013-07-01 20:30:00,
2013-07-01 16:32:00,83.1,74.4,29.82,South,178,6.0,12.0,75,0.00,,,0.04,Wunderground v.1.15,2013-07-01 20:32:00,
2013-07-01 16:33:00,87.1,75.7,29.85,SW,223,2.0,8.0,69,0.00,,,0.02,Wunderground v.1.15,2013-07-01 20:33:00,
2013-07-01 16:34:00,87.2,75.8,29.85,WSW,244,5.0,8.0,69,0.00,,,0.02,Wunderground v.1.15,2013-07-01 20:34:00,
2013-07-01 16:35:00,87.3,75.4,29.85,WNW,292,2.0,11.0,68,0.00,,,0.02,Wunderground v.1.15,2013-07-01 20:35:00,
2013-07-01 16:37:00,83.0,74.3,29.82,South,180,0.0,6.0,75,0.00,,,0.04,Wunderground v.1.15,2013-07-01 20:37:00,
2013-07-01 16:41:00,87.6,74.8,29.85,SSW,213,4.0,6.0,66,0.00,,,0.02,Wunderground v.1.15,2013-07-01 20:41:00,
2013-07-01 16:42:00,82.8,74.5,29.82,South,188,5.0,9.0,76,0.00,,,0.04,Wunderground v.1.15,2013-07-01 20:42:00,
2013-07-01 16:45:00,87.8,75.9,29.85,WSW,256,3.0,6.0,68,0.00,,,0.02,Wunderground v.1.15,2013-07-01 20:45:00,
2013-07-01 16:47:00,82.7,75.1,29.82,ESE,111,0.0,4.0,78,0.00,,,0.04,Wunderground v.1.15,2013-07-01 20:47:00,
2013-07-01 16:52:00,82.6,74.3,29.82,SSW,192,3.0,5.0,76,0.00,,,0.04,Wunderground v.1.15,2013-07-01 20:52:00,
2013-07-01 16:57:00,82.4,74.1,29.82,SSW,193,4.0,8.0,76,0.00,,,0.04,Wunderground v.1.15,2013-07-01 20:57:00,
2013-07-01 17:02:00,82.1,73.8,29.82,South,186,5.0,10.0,76,0.00,,,0.04,Wunderground v.1.15,2013-07-01 21:02:00,
2013-07-01 17:07:00,82.1,73.8,29.82,SSW,201,5.0,8.0,76,0.00,,,0.04,Wunderground v.1.15,2013-07-01 21:07:00,
2013-07-01 17:12:00,82.0,74.1,29.82,South,182,4.0,8.0,77,0.00,,,0.04,Wunderground v.1.15,2013-07-01 21:12:00,
2013-07-01 17:17:00,82.1,74.6,29.82,South,178,6.0,6.0,78,0.00,,,0.04,Wunderground v.1.15,2013-07-01 21:17:00,
2013-07-01 17:22:00,82.4,74.8,29.82,South,186,2.0,7.0,78,0.00,,,0.04,Wunderground v.1.15,2013-07-01 21:22:00,
2013-07-01 17:27:00,82.6,74.7,29.82,South,184,5.0,8.0,77,0.00,,,0.04,Wunderground v.1.15,2013-07-01 21:27:00,
2013-07-01 17:32:00,82.4,74.5,29.82,South,184,3.0,10.0,77,0.00,,,0.04,Wunderground v.1.15,2013-07-01 21:32:00,
2013-07-01 17:37:00,82.3,74.7,29.82,SSW,212,5.0,7.0,78,0.00,,,0.04,Wunderground v.1.15,2013-07-01 21:37:00,
2013-07-01 17:42:00,82.2,74.7,29.82,South,184,4.0,9.0,78,0.00,,,0.04,Wunderground v.1.15,2013-07-01 21:42:00,
2013-07-01 17:47:00,82.0,74.5,29.82,South,178,4.0,9.0,78,0.00,,,0.04,Wunderground v.1.15,2013-07-01 21:47:00,
2013-07-01 17:52:00,81.8,73.9,29.82,South,181,6.0,9.0,77,0.00,,,0.04,Wunderground v.1.15,2013-07-01 21:52:00,
2013-07-01 17:57:00,81.5,73.6,29.82,South,176,6.0,8.0,77,0.00,,,0.04,Wunderground v.1.15,2013-07-01 21:57:00,
2013-07-01 18:02:00,81.3,73.8,29.82,South,170,4.0,9.0,78,0.00,,,0.04,Wunderground v.1.15,2013-07-01 22:02:00,
2013-07-01 18:07:00,81.1,74.0,29.82,SSE,168,6.0,7.0,79,0.00,,,0.04,Wunderground v.1.15,2013-07-01 22:07:00,
2013-07-01 18:12:00,80.9,73.8,29.82,SSE,166,7.0,10.0,79,0.00,,,0.04,Wunderground v.1.15,2013-07-01 22:12:00,
2013-07-01 18:17:00,80.7,73.6,29.81,South,187,6.0,8.0,79,0.00,,,0.04,Wunderground v.1.15,2013-07-01 22:17:00,
2013-07-01 18:22:00,80.5,73.4,29.82,SSW,193,5.0,8.0,79,0.00,,,0.04,Wunderground v.1.15,2013-07-01 22:22:00,
2013-07-01 18:27:00,80.2,73.5,29.81,South,179,6.0,7.0,80,0.00,,,0.04,Wunderground v.1.15,2013-07-01 22:27:00,
2013-07-01 18:32:00,80.1,73.4,29.82,South,171,1.0,8.0,80,0.00,,,0.04,Wunderground v.1.15,2013-07-01 22:32:00,
2013-07-01 18:37:00,80.0,73.6,29.82,SSW,196,4.0,6.0,81,0.00,,,0.04,Wunderground v.1.15,2013-07-01 22:37:00,
2013-07-01 18:42:00,79.9,73.2,29.82,South,188,7.0,8.0,80,0.00,,,0.04,Wunderground v.1.15,2013-07-01 22:42:00,
2013-07-01 18:47:00,79.7,73.3,29.82,South,186,4.0,6.0,81,0.00,,,0.04,Wunderground v.1.15,2013-07-01 22:47:00,
2013-07-01 18:53:00,79.7,73.3,29.82,SSW,195,5.0,7.0,81,0.00,,,0.04,Wunderground v.1.15,2013-07-01 22:53:00,
2013-07-01 18:58:00,79.8,73.4,29.82,South,183,6.0,6.0,81,0.00,,,0.04,Wunderground v.1.15,2013-07-01 22:58:00,
2013-07-01 19:03:00,79.8,73.4,29.83,South,176,6.0,6.0,81,0.00,,,0.04,Wunderground v.1.15,2013-07-01 23:03:00,
2013-07-01 19:08:00,79.7,73.7,29.83,ESE,123,4.0,7.0,82,0.00,,,0.04,Wunderground v.1.15,2013-07-01 23:08:00,
2013-07-01 19:13:00,79.6,73.6,29.83,South,183,6.0,9.0,82,0.00,,,0.04,Wunderground v.1.15,2013-07-01 23:13:00,
2013-07-01 19:18:00,79.5,73.5,29.84,SSW,194,6.0,7.0,82,0.00,,,0.04,Wunderground v.1.15,2013-07-01 23:18:00,
2013-07-01 19:23:00,79.3,73.7,29.84,SSW,194,5.0,8.0,83,0.00,,,0.04,Wunderground v.1.15,2013-07-01 23:23:00,
2013-07-01 19:28:00,79.2,73.9,29.84,SSW,196,6.0,8.0,84,0.00,,,0.04,Wunderground v.1.15,2013-07-01 23:28:00,
2013-07-01 19:33:00,79.1,73.8,29.84,South,184,3.0,8.0,84,0.00,,,0.04,Wunderground v.1.15,2013-07-01 23:33:00,
2013-07-01 19:38:00,79.0,73.7,29.85,SSW,192,4.0,6.0,84,0.00,,,0.04,Wunderground v.1.15,2013-07-01 23:38:00,
2013-07-01 19:43:00,78.9,74.0,29.85,South,182,4.0,9.0,85,0.00,,,0.04,Wunderground v.1.15,2013-07-01 23:43:00,
2013-07-01 19:48:00,78.9,74.0,29.85,South,186,4.0,7.0,85,0.00,,,0.04,Wunderground v.1.15,2013-07-01 23:48:00,
2013-07-01 19:53:00,78.8,73.9,29.85,South,191,5.0,8.0,85,0.00,,,0.04,Wunderground v.1.15,2013-07-01 23:53:00,
2013-07-01 19:58:00,78.7,73.8,29.85,South,184,7.0,7.0,85,0.00,,,0.04,Wunderground v.1.15,2013-07-01 23:58:00,
2013-07-01 20:03:00,78.5,74.0,29.85,South,184,7.0,9.0,86,0.00,,,0.04,Wunderground v.1.15,2013-07-02 00:03:00,
2013-07-01 20:08:00,78.4,73.9,29.85,SSW,192,3.0,8.0,86,0.00,,,0.04,Wunderground v.1.15,2013-07-02 00:08:00,
2013-07-01 20:13:00,78.2,73.7,29.85,South,191,4.0,8.0,86,0.00,,,0.04,Wunderground v.1.15,2013-07-02 00:13:00,
2013-07-01 20:18:00,78.1,73.6,29.85,SSW,207,8.0,9.0,86,0.00,,,0.04,Wunderground v.1.15,2013-07-02 00:18:00,
2013-07-01 20:23:00,78.0,73.5,29.85,South,175,7.0,9.0,86,0.00,,,0.04,Wunderground v.1.15,2013-07-02 00:23:00,
2013-07-01 20:28:00,77.9,73.4,29.86,South,183,4.0,7.0,86,0.00,,,0.04,Wunderground v.1.15,2013-07-02 00:28:00,
2013-07-01 20:33:00,77.8,73.3,29.86,South,184,5.0,8.0,86,0.00,,,0.04,Wunderground v.1.15,2013-07-02 00:33:00,
2013-07-01 20:38:00,77.6,73.1,29.85,South,182,8.0,8.0,86,0.00,,,0.04,Wunderground v.1.15,2013-07-02 00:38:00,
2013-07-01 20:43:00,77.5,72.6,29.86,SSW,193,7.0,8.0,85,0.00,,,0.04,Wunderground v.1.15,2013-07-02 00:43:00,
2013-07-01 20:48:00,77.4,72.9,29.86,South,182,6.0,9.0,86,0.00,,,0.04,Wunderground v.1.15,2013-07-02 00:48:00,
2013-07-01 20:53:00,77.3,72.8,29.86,SSE,153,6.0,9.0,86,0.00,,,0.04,Wunderground v.1.15,2013-07-02 00:53:00,
2013-07-01 20:58:00,77.2,72.7,29.86,South,182,5.0,7.0,86,0.00,,,0.04,Wunderground v.1.15,2013-07-02 00:58:00,
2013-07-01 21:03:00,77.1,72.9,29.87,South,182,4.0,9.0,87,0.00,,,0.04,Wunderground v.1.15,2013-07-02 01:03:00,
2013-07-01 21:08:00,76.9,72.7,29.87,South,188,4.0,7.0,87,0.00,,,0.04,Wunderground v.1.15,2013-07-02 01:08:00,
2013-07-01 21:13:00,76.7,72.9,29.87,South,184,4.0,8.0,88,0.00,,,0.04,Wunderground v.1.15,2013-07-02 01:13:00,
2013-07-01 21:18:00,76.6,72.8,29.87,South,190,5.0,7.0,88,0.00,,,0.04,Wunderground v.1.15,2013-07-02 01:18:00,
2013-07-01 21:23:00,76.5,72.7,29.87,South,184,2.0,7.0,88,0.00,,,0.04,Wunderground v.1.15,2013-07-02 01:23:00,
2013-07-01 21:28:00,76.4,72.9,29.87,South,183,5.0,7.0,89,0.00,,,0.04,Wunderground v.1.15,2013-07-02 01:28:00,
2013-07-01 21:33:00,76.4,72.9,29.88,South,188,4.0,7.0,89,0.00,,,0.04,Wunderground v.1.15,2013-07-02 01:33:00,
2013-07-01 21:38:00,76.3,72.8,29.88,South,181,6.0,8.0,89,0.00,,,0.04,Wunderground v.1.15,2013-07-02 01:38:00,
2013-07-01 21:44:00,76.3,72.8,29.88,South,183,4.0,8.0,89,0.00,,,0.04,Wunderground v.1.15,2013-07-02 01:44:00,
2013-07-01 21:49:00,76.2,72.7,29.88,South,184,3.0,7.0,89,0.00,,,0.04,Wunderground v.1.15,2013-07-02 01:49:00,
2013-07-01 21:54:00,76.2,73.1,29.89,South,184,3.0,7.0,90,0.00,,,0.04,Wunderground v.1.15,2013-07-02 01:54:00,
2013-07-01 21:59:00,76.1,73.0,29.89,South,185,3.0,6.0,90,0.00,,,0.04,Wunderground v.1.15,2013-07-02 01:59:00,
2013-07-01 22:04:00,76.2,73.1,29.89,South,185,6.0,6.0,90,0.00,,,0.04,Wunderground v.1.15,2013-07-02 02:04:00,
2013-07-01 22:09:00,76.1,73.0,29.89,South,185,2.0,8.0,90,0.00,,,0.04,Wunderground v.1.15,2013-07-02 02:09:00,
2013-07-01 22:13:00,76.0,72.9,29.89,South,185,4.0,8.0,90,0.00,,,0.04,Wunderground v.1.15,2013-07-02 02:13:00,
2013-07-01 22:19:00,76.0,73.2,29.89,South,186,5.0,6.0,91,0.00,,,0.04,Wunderground v.1.15,2013-07-02 02:19:00,
2013-07-01 22:24:00,75.9,73.1,29.89,South,185,5.0,6.0,91,0.00,,,0.04,Wunderground v.1.15,2013-07-02 02:24:00,
2013-07-01 22:29:00,75.8,73.0,29.89,South,184,3.0,6.0,91,0.00,,,0.04,Wunderground v.1.15,2013-07-02 02:29:00,
2013-07-01 22:34:00,75.7,73.2,29.89,South,184,3.0,7.0,92,0.00,,,0.04,Wunderground v.1.15,2013-07-02 02:34:00,
2013-07-01 22:39:00,75.6,73.1,29.89,South,186,4.0,6.0,92,0.00,,,0.04,Wunderground v.1.15,2013-07-02 02:39:00,
2013-07-01 22:44:00,75.5,73.0,29.90,South,186,6.0,6.0,92,0.00,,,0.04,Wunderground v.1.15,2013-07-02 02:44:00,
2013-07-01 22:49:00,75.5,73.0,29.90,South,186,4.0,7.0,92,0.00,,,0.04,Wunderground v.1.15,2013-07-02 02:49:00,
2013-07-01 22:54:00,75.5,73.0,29.90,South,187,6.0,8.0,92,0.00,,,0.04,Wunderground v.1.15,2013-07-02 02:54:00,
2013-07-01 22:59:00,75.4,72.9,29.90,South,188,4.0,7.0,92,0.00,,,0.04,Wunderground v.1.15,2013-07-02 02:59:00,
2013-07-01 23:04:00,75.4,72.6,29.89,SSW,202,3.0,5.0,91,0.00,,,0.04,Wunderground v.1.15,2013-07-02 03:04:00,
2013-07-01 23:09:00,75.4,72.6,29.90,South,184,8.0,10.0,91,0.00,,,0.04,Wunderground v.1.15,2013-07-02 03:09:00,
2013-07-01 23:14:00,75.4,72.3,29.90,SSW,199,4.0,6.0,90,0.00,,,0.04,Wunderground v.1.15,2013-07-02 03:14:00,
2013-07-01 23:19:00,75.4,72.3,29.91,SSW,194,6.0,11.0,90,0.00,,,0.04,Wunderground v.1.15,2013-07-02 03:19:00,
2013-07-01 23:24:00,75.3,72.2,29.90,SSW,193,5.0,7.0,90,0.00,,,0.04,Wunderground v.1.15,2013-07-02 03:24:00,
2013-07-01 23:29:00,75.3,72.2,29.90,SSW,192,7.0,10.0,90,0.00,,,0.04,Wunderground v.1.15,2013-07-02 03:29:00,
2013-07-01 23:34:00,75.2,72.1,29.91,South,184,6.0,8.0,90,0.00,,,0.04,Wunderground v.1.15,2013-07-02 03:34:00,
2013-07-01 23:40:00,75.1,72.0,29.90,SSW,211,5.0,10.0,90,0.00,,,0.04,Wunderground v.1.15,2013-07-02 03:40:00,
2013-07-01 23:45:00,75.1,72.0,29.91,SSW,205,7.0,7.0,90,0.00,,,0.04,Wunderground v.1.15,2013-07-02 03:45:00,
2013-07-01 23:46:00,75.0,71.5,29.92,SSW,199,0.0,3.0,89,0.00,,,0.02,Wunderground v.1.15,2013-07-02 03:46:00,
2013-07-01 23:47:00,75.0,71.5,29.92,SSW,199,0.0,3.0,89,0.00,,,0.02,Wunderground v.1.15,2013-07-02 03:47:00,
2013-07-01 23:48:00,74.9,71.4,29.92,SSW,199,0.0,3.0,89,0.00,,,0.02,Wunderground v.1.15,2013-07-02 03:48:00,
2013-07-01 23:49:00,74.9,71.8,29.92,SSW,200,2.0,3.0,90,0.00,,,0.02,Wunderground v.1.15,2013-07-02 03:49:00,
2013-07-01 23:50:00,75.0,71.5,29.91,South,191,9.0,10.0,89,0.00,,,0.04,Wunderground v.1.15,2013-07-02 03:50:00,
2013-07-01 23:51:00,74.8,71.7,29.92,SSW,200,0.0,3.0,90,0.00,,,0.00,Wunderground v.1.15,2013-07-02 03:51:00,
2013-07-01 23:52:00,74.8,71.7,29.92,SSW,200,0.0,3.0,90,0.00,,,0.00,Wunderground v.1.15,2013-07-02 03:52:00,
2013-07-01 23:53:00,74.8,71.7,29.92,SSW,200,0.0,3.0,90,0.00,,,0.00,Wunderground v.1.15,2013-07-02 03:53:00,
2013-07-01 23:54:00,74.7,71.6,29.92,SSW,192,3.0,3.0,90,0.00,,,0.00,Wunderground v.1.15,2013-07-02 03:54:00,
2013-07-01 23:55:00,74.9,71.8,29.90,South,181,7.0,8.0,90,0.00,,,0.04,Wunderground v.1.15,2013-07-02 03:55:00,